Regional Weather Roundup
Issued by NWS

Home | Current Version | Previous Version | Text Only | Print | Product List | Glossary Off
Versions: 1 2 3 4 5 6 7 8 9 10 11 12 13 14 15 16 17 18 19 20 21 22 23 24 25 26 27 28 29 30 31 32 33 34 35 36 37 38 39 40 41 42 43 44 45 46 47 48 49 50

001
ASUS45 KPSR 280510
RWRAZ

ARIZONA REGIONAL HOURLY WEATHER ROUNDUP
NATIONAL WEATHER SERVICE TUCSON AZ
1000 PM MST SAT MAY 27 2017

NOTE: FAIR INDICATES FEW OR NO CLOUDS BELOW 12,000 FEET WITH NO
SIGNIFICANT WEATHER AND/OR OBSTRUCTIONS TO VISIBILITY.

AZZ001>003-036-280600-
NORTHWEST ARIZONA

CITY           SKY/WX    TMP DP  RH WIND       PRES   REMARKS
BULLHEAD CITY  CLEAR     86  28  12 SE5       29.86R
KINGMAN        CLEAR     69  19  15 MISG      30.04R
$$

AZZ004>008-015-016-018-280600-
NORTH CENTRAL ARIZONA

CITY           SKY/WX    TMP DP  RH WIND       PRES   REMARKS
GRAND CANYON   CLEAR     45  26  47 CALM      30.22R
WILLIAMS       CLEAR     57  23  26 SW7       30.23R
PRESCOTT       CLEAR     65  22  19 SW6       30.13R
FLAGSTAFF      CLEAR     48  24  39 CALM      30.24R
PAYSON         CLEAR     66  19  16 CALM      30.16R
PAGE           CLEAR     76  23  14 N9        30.07R
$$

AZZ009>014-017-280600-
NORTHEAST ARIZONA

CITY           SKY/WX    TMP DP  RH WIND       PRES   REMARKS
WINSLOW        PTCLDY    63  24  22 W8        30.10R
SAINT JOHNS    CLEAR     68  16  13 W10       30.14R
WINDOW ROCK    CLEAR     56  25  30 N7        30.22R
SHOW LOW       CLEAR     57  16  19 S9        30.22R
$$

AZZ023-280600-
GREATER PHOENIX AREA

CITY           SKY/WX    TMP DP  RH WIND       PRES   REMARKS
PHOENIX        CLEAR     86  32  14 SW3       29.86R
BUCKEYE        CLEAR     79  27  14 W5        29.87R
LUKE AFB       CLEAR     81  38  21 CALM      29.86R
DEER VALLEY    CLEAR     80  30  16 CALM      29.88R
SCOTTSDALE     CLEAR     85  32  15 CALM      29.90R
MESA-GATEWAY   CLEAR     81  27  13 CALM      29.90R
$$

AZZ027-028-280600-
SOUTHWEST MARICOPA COUNTY AND PINAL COUNTY

CITY           SKY/WX    TMP DP  RH WIND       PRES   REMARKS
CASA GRANDE    CLEAR     79  24  13 N6        29.90R
$$

AZZ503-504-507>509-280600-
SOUTHEAST ARIZONA

CITY           SKY/WX    TMP DP  RH WIND       PRES   REMARKS
TUCSON         CLEAR     79  18  10 W3        29.99R
DAVIS-MONTHAN  CLEAR     78  20  11 W5        29.97R
NOGALES        CLEAR     66   8  10 CALM      30.06R
SIERRA VISTA   CLEAR     69   5   8 W9        30.12S
DOUGLAS        CLEAR     64   7  10 SE9       30.07R
SAFFORD        CLEAR     74  11   9 NW10      29.97R
$$

AZZ020-021-025-026-031-280600-
SOUTHWEST ARIZONA

CITY           SKY/WX    TMP DP  RH WIND       PRES   REMARKS
YUMA           CLEAR     83  48  29 SW7       29.85R
$$

CAZ031-033-041-043-047-048-061-280600-
SOUTHERN CALIFORNIA

CITY           SKY/WX    TMP DP  RH WIND       PRES   REMARKS
DOWNTOWN L.A.  CLEAR     64  52  64 CALM      30.02S
L.A. AIRPORT   CLEAR     61  54  77 SW9       30.03R
SAN DIEGO      PTCLDY    62  54  74 N7        30.06R
BURBANK        CLEAR     63  49  60 S3        30.02R
ONTARIO        PTCLDY    63  51  65 SW7       30.03R
RIVERSIDE      CLEAR     62  52  69 W6        30.03R
PALM SPRINGS   CLEAR     81  48  31 NW15      29.89R
EL CENTRO NAS  CLEAR     83  38  20 W8        29.85R
IMPERIAL       CLEAR     77  44  30 CALM      29.83R
BLYTHE         CLEAR     85  24  11 VRB3      29.85R
NEEDLES        CLEAR     89  16   7 W10       29.87R
$$

NVZ020-UTZ003-280600-
SOUTHERN NEVADA-UTAH

CITY           SKY/WX    TMP DP  RH WIND       PRES   REMARKS
LAS VEGAS      PTCLDY    86  26  11 E3        29.94R
SALT LAKE CITY CLEAR     63  43  48 CALM      30.22R
$$

NMZ009-TXZ055-280600-
NEW MEXICO-WEST TEXAS

CITY           SKY/WX    TMP DP  RH WIND       PRES   REMARKS
ALBUQUERQUE    CLEAR     71  21  15 N14       30.11R
EL PASO        CLEAR     81  12   7 NW3       30.00R
$$


........................KEY........................
SKY/WX - SKY CONDITION/WEATHER
TMP    - TEMPERATURE IN FAHRENHEIT
DP     - DEWPOINT IN FAHRENHEIT
RH     - RELATIVE HUMIDITY IN PERCENT
WIND   - DIRECTION AND SPEED IN MILES PER HOUR (MPH)
VRB    - VARIABLE WIND DIRECTION
PRES   - MEAN SEA LEVEL PRESSURE IN INCHES OF MERCURY
         F - FALLING PRESSURE   R - RISING PRESSURE
         S - STEADY PRESSURE
VSB    - VISIBILITY IN MILES
HX     - HEAT INDEX IN FAHRENHEIT
WCI    - WIND CHILL INDEX IN FAHRENHEIT
TC     - TEMPERATURE IN CELSIUS WHICH IS ALSO KNOWN AS
         TEMPERATURE IN CENTIGRADE
AFB    - AIR FORCE BASE
         LUKE AFB IS LUKE AIR FORCE BASE
         DAVIS-MONTHAN IS DAVIS-MONTHAN AIR FORCE BASE
NAS    - NAVAL AIR STATION
         EL CENTRO NAS IS EL CENTRO NAVAL AIR STATION
N/A    - NOT AVAILABLE





USA.gov is the U.S. government's official web portal to all federal, state and local government web resources and services.